DW8131 Weather Reports


Display with metric or nautical units.
time (UTC)temp
F
wind
direction
speed
MPH
gust
MPH
rain 1hr
in
rain 24hr
in
rain mn
in
humidity
%
barometer
mb
20260507183017 51 327 6.0 0.0 0.00 0.00 0.00 54 1017.7
20260507181515 52 298 7.0 0.0 0.00 0.00 0.00 55 1017.6
20260507180018 53 351 6.0 0.0 0.00 0.00 0.00 55 1017.4
20260507174522 53 328 6.0 0.0 0.00 0.00 0.00 54 1017.5
20260507173031 53 315 6.0 0.0 0.00 0.00 0.00 55 1017.3
20260507171521 53 296 7.0 0.0 0.00 0.00 0.00 55 1017.1
20260507170014 54 315 7.0 0.0 0.00 0.00 0.00 53 1017.0
20260507164516 54 313 8.0 0.0 0.00 0.00 0.00 54 1017.0
20260507163011 54 294 8.0 0.0 0.00 0.00 0.00 55 1017.1
20260507161512 55 327 9.0 0.0 0.00 0.00 0.00 55 1017.1
20260507160010 55 326 9.0 0.0 0.00 0.00 0.00 57 1017.0
20260507154509 55 355 7.0 0.0 0.00 0.00 0.00 58 1017.2
20260507153008 56 355 8.0 0.0 0.00 0.00 0.00 55 1017.1
20260507151508 56 351 9.0 0.0 0.00 0.00 0.00 54 1017.0
20260507150007 57 279 9.0 0.0 0.00 0.00 0.00 52 1017.0
20260507144506 57 313 10.0 0.0 0.00 0.00 0.00 52 1017.0
20260507143007 57 315 11.0 0.0 0.00 0.00 0.00 52 1016.8
20260507141505 58 325 10.0 0.0 0.00 0.00 0.00 52 1016.8
20260507140005 58 275 9.0 0.0 0.00 0.00 0.00 55 1016.9
20260507134503 58 360 9.0 0.0 0.00 0.00 0.00 57 1017.0
20260507133002 58 295 9.0 0.0 0.00 0.00 0.00 59 1016.8
20260507131501 58 360 10.0 0.0 0.00 0.00 0.00 60 1016.8
20260507130108 59 312 9.0 0.0 0.00 0.00 0.00 56 1016.8
20260507124607 59 302 9.0 0.0 0.00 0.00 0.00 56 1016.6
20260507123059 59 305 10.0 0.0 0.00 0.00 0.00 57 1016.6
20260507121559 60 272 8.0 0.0 0.00 0.00 0.00 57 1016.5
20260507120056 59 290 10.0 0.0 0.00 0.00 0.00 55 1016.6
20260507114609 60 360 11.0 0.0 0.00 0.00 0.00 56 1016.6
20260507113054 60 360 10.0 0.0 0.00 0.00 0.00 52 1016.8
20260507111555 62 323 9.0 0.0 0.00 0.00 0.00 49 1016.7
20260507110051 62 263 9.0 0.0 0.00 0.00 0.00 48 1016.6
20260507104552 63 309 9.0 0.0 0.00 0.00 0.00 45 1016.5
20260507103055 65 277 8.0 0.0 0.00 0.00 0.00 42 1016.4
20260507101549 66 317 7.0 0.0 0.00 0.00 0.00 41 1016.4
20260507100050 66 271 6.0 0.0 0.00 0.00 0.00 43 1016.3
20260507094556 66 265 6.0 0.0 0.00 0.00 0.00 44 1016.2
20260507093045 66 280 7.0 0.0 0.00 0.00 0.00 43 1016.1
20260507091544 66 271 7.0 0.0 0.00 0.00 0.00 41 1016.0
20260507090044 66 246 6.0 0.0 0.00 0.00 0.00 43 1016.0
20260507084543 66 254 6.0 0.0 0.00 0.00 0.00 43 1016.0
20260507083041 66 276 5.0 0.0 0.00 0.00 0.00 43 1015.8
20260507081542 66 251 5.0 0.0 0.00 0.00 0.00 39 1015.7
20260507080038 65 292 5.0 0.0 0.00 0.00 0.00 40 1015.6
20260507074535 65 302 5.0 0.0 0.00 0.00 0.00 44 1015.5
20260507073033 64 286 3.0 0.0 0.00 0.00 0.00 44 1015.3
20260507071529 63 349 2.0 0.0 0.00 0.00 0.00 47 1015.2
20260507070038 61 305 3.0 0.0 0.00 0.00 0.00 50 1015.3
20260507064520 59 316 2.0 0.0 0.00 0.00 0.00 55 1015.1
20260507063017 57 238 1.0 0.0 0.00 0.00 0.00 58 1014.9
20260507061513 52 15 1.0 0.0 0.00 0.00 0.00 68 1014.9
20260507060015 48 31 1.0 0.0 0.00 0.00 0.00 71 1014.9
20260507054504 46 40 1.0 0.0 0.00 0.00 0.00 73 1014.8
20260507053126 44 61 1.0 0.0 0.00 0.00 0.00 74 1014.7
20260507051559 43 38 2.0 0.0 0.00 0.00 0.00 77 1014.5
20260507050057 41 44 2.0 0.0 0.00 0.00 0.00 79 1014.4
20260507044617 41 38 3.0 0.0 0.00 0.00 0.00 76 1014.2
20260507043055 0 0.0 0.0 0.00 0.00 0.00 1014.1
20260507041551 0 0.0 0.0 0.00 0.00 0.00 1014.1
20260507040047 0 0.0 0.0 0.00 0.00 0.00 1014.1
20260507034544 0 0.0 0.0 0.00 0.00 0.00 1013.8
20260507033047 0 0.0 0.0 0.00 0.00 0.00 1013.9
20260507031545 0 0.0 0.0 0.00 0.00 0.00 1013.9
20260507030025 0 0.0 0.0 0.00 0.00 0.00 1013.9
20260507024524 0 0.0 0.0 0.00 0.00 0.00 1013.9
20260507023017 0 0.0 0.0 0.00 0.00 0.00 1013.6
20260507021515 39 22 3.0 0.0 0.00 0.00 0.00 83 1013.6
20260507020013 39 30 2.0 0.0 0.00 0.00 0.00 82 1013.5
20260507014510 40 29 2.0 0.0 0.00 0.00 0.00 82 1013.5
20260507013008 40 28 3.0 0.0 0.00 0.00 0.00 83 1013.4
20260507011518 40 30 2.0 0.0 0.00 0.00 0.00 83 1013.3
20260507010004 40 31 2.0 0.0 0.00 0.00 0.00 83 1013.2
20260507004501 41 34 2.0 0.0 0.00 0.00 0.00 81 1013.0
20260507003108 42 28 0.0 0.0 0.00 0.00 0.00 80 1013.1
20260507001559 43 24 2.0 0.0 0.00 0.00 0.00 78 1013.0
20260507000052 43 16 3.0 0.0 0.00 0.00 0.00 78 1012.9
20260506234600 44 19 3.0 0.0 0.00 0.00 0.00 78 1012.7
20260506233052 44 349 4.0 0.0 0.00 0.00 0.00 78 1012.8
20260506231553 43 325 3.0 0.0 0.00 0.00 0.00 76 1012.8
20260506230042 43 318 3.0 0.0 0.00 0.00 0.00 74 1012.6
20260506224542 44 329 3.0 0.0 0.00 0.00 0.00 73 1012.5
20260506223042 44 337 3.0 0.0 0.00 0.00 0.00 72 1012.4
20260506221541 45 5 2.0 0.0 0.00 0.00 0.00 70 1012.5
20260506220039 45 15 3.0 0.0 0.00 0.00 0.00 68 1012.2
20260506214538 45 355 4.0 0.0 0.00 0.00 0.00 67 1012.2
20260506213040 45 326 3.0 0.0 0.00 0.00 0.00 68 1012.0
20260506211538 45 325 4.0 0.0 0.00 0.00 0.00 71 1012.0
20260506210037 46 317 4.0 0.0 0.00 0.00 0.00 73 1011.9
20260506204540 46 338 3.0 0.0 0.00 0.00 0.00 73 1011.8
20260506203040 46 338 3.0 0.0 0.00 0.00 0.00 72 1011.7
20260506201539 47 327 4.0 0.0 0.00 0.00 0.00 69 1011.7
20260506200039 47 333 4.0 0.0 0.00 0.00 0.00 68 1011.6
20260506194534 48 320 4.0 0.0 0.00 0.00 0.00 66 1011.6
20260506193033 49 5 4.0 0.0 0.00 0.00 0.00 65 1011.5
20260506191533 49 338 4.0 0.0 0.00 0.00 0.00 63 1011.4
20260506190038 50 360 4.0 0.0 0.00 0.00 0.00 61 1011.3
20260506184540 50 355 5.0 0.0 0.00 0.00 0.00 59 1011.1